Weather in Zalozhtsy

Ukraine / Ternopil District     49˚47′28″N   25˚22′07″E
temp.,
°C
wind,
m/s
gust,
m/s
humid.,
%
clouds,
%
prec.,
mm/h
press.,
hPa
HPBL,
m
3 december, thu
thu323:00−2˚sse6986100 0.0 1024622
02:00−2˚sse61184100 0.1 1023593
05:00−2˚sse71191100 0.0 1022555
08:00−1˚sse71284100 0.0 1022533
11:00sse8138177 0.0 1020558
14:00+1˚sse9148085 0.0 1018539
17:00sse9158792 0.0 1018506
20:00+1˚se9158891 0.0 1017501
4 december, fri
fri423:00+1˚sse10168898 0.0 1017520
02:00+1˚sse9168999 0.0 1016508
05:00+1˚sse9169194 0.0 1014521
08:00+1˚se9179093 0.0 1014498
11:00+3˚se10178891 0.0 1013552
14:00+5˚se10178695 0.0 1012633
17:00+5˚sse9198883 0.0 1012570
20:00+5˚sse8188950 0.0 1013526
5 december, sat
sat523:00+5˚sse9189213 0.0 1014499
02:00+6˚sse9169149 0.0 1014542
05:00+6˚sse9169292 0.0 1014556
08:00+7˚sse9179096 0.0 1016607
11:00+7˚sse10178899 0.0 1016741
14:00+8˚sse91684100 0.0 1017707
17:00+8˚se9178780 0.0 1017647
20:00+7˚se10178486 0.0 1019681
6 december, sun
sun623:00+7˚se10178497 0.0 1020727
02:00+6˚se9168586 0.0 1021647
05:00+5˚se9168588 0.0 1021659
08:00+3˚se10168694 0.0 1021697
11:00+2˚se101783100 0.0 1022671
14:00+2˚se11178186 0.0 1021650
17:00se11197937 0.0 1021632
20:00se12217218 0.0 1022667
7 december, mon
mon723:00−1˚se1221690 0.0 1022701
02:00−1˚se1221690 0.0 1021753
05:00−1˚se1221680 0.0 1021724
08:00−2˚se1220720 0.0 1021760
11:00se12196932 0.0 1022796
14:00+1˚se11176946 0.0 1021868
17:00−2˚se10177155 0.0 1022735
20:00−3˚se10176757 0.0 1022661